Погода Есенгылы

Погода Есенгылы : погода сейчас, прогноз погоды и архив. Всё, что Вы хотите узнать о погоде Есенгылы!

Хотите узнать прогноз погоды Есенгылы? Тогда Вам сюда: Погода Есенгылы

Поиск расширенной информации на нашем сайте:

Другие новости

Новости СМИ2

Главная страница сайта

Новости сайта

03.07.2017

Напоминаем, что на нашем специализированном сайте Метеоцентр.Азия вы можете получить высокодетализированные автоматические прогнозы погоды по пунктам России, СНГ и мира в авиационном формате (включающие направление и скорость ветра, видимость, явления погоды, количество и форму облачности, нижнюю и верхнюю границу облачности).


Погода Есенгылы - сегодня

Время (UTC), дата Ветер
(°,м/с) 
Видим.   Явления Облачность Т
(°С)
Тd
(°С)
f(%) Тe
(°С)
Pmin
(гПа)
dP
(гПа)
Po
(мм)
O2
(г/м3)
Тmin Tmax R s Состояние
почвы
18 14.08.18 270 (З) 10 км    ясно 
+27.1 +19.9 65 +45  1012.8  1.2  762  274    +30.2       
21 14.08.18 270 (З) 10 км    10/10 600 м кучево-дожд. 
[Cb calv]
+27.3 +20 64 +45  1012.8  762  274           
00 15.08.18 270 (З) 10 км    10/10 600 м кучево-дожд. 
[Cb calv]
+27 +19.5 64 +44  1012.8  762  275           
03 15.08.18 260 (З) 10 км    10/10 600 м кучево-дожд. 
[Cb calv]
+27 +19.6 64 +45  1014.1  1.3  752  271           
06 15.08.18 240 (ЮЗ) 10 км    6/6 600 м 
[Cu hum]
+28.6 +20.6 62 +48  1013.6  -0.5  762  273  +26.9         
09 15.08.18 250 (З) 10 км    4/4 600 м 
[Cu hum]
+29 +21.5 64 +51  1012.9  -0.7  762  272           
12 15.08.18 300 (СЗ) 10 км    3/3 600 м 
[Cu hum]
+29.4 +20.5 59 +49  1012.4  -0.6  761  272           
15 15.08.18 280 (З) 10 км    6/6 600 м 
[Sc]
+28.1 +19.9 61 +46  1012.4  761  273    +29.8       
18 15.08.18 280 (З) 10 км    6/6 600 м 
[Sc]
+27.5 +20.4 65 +46  1014  1.7  763  274    +29.8       
21 15.08.18 250 (З) 10 км    6/6 600 м 
[Sc]
+27.5 +20.6 66 +47  1013.1  -0.9  762  274           
00 16.08.18 270 (З) 10 км    4/4 600 м 
[Cu hum]
+27.3 +21 69 +48  1013.8  0.7  762  274           
03 16.08.18 250 (З) 10 км    10/10 600 м кучево-дожд. 
[Cb calv]
+26.9 +22 75 +50  1014.2  0.4  763  274           
06 16.08.18 250 (З) 10 км    4/4 600 м 
[Cu hum]
+28.7 +21.4 65 +50  1015.3  1.1  764  273  +26.8         
09 16.08.18 280 (З) 10 км    3/3 600 м 
[Cu hum]
+30.2 +21 58 +51  1014.6  -0.8  763  272           
12 16.08.18 280 (З) 10 км    ясно 
+30.2 +21.3 59 +51  1013.6  -1  762  271           
15 16.08.18 280 (З) 10 км    3/0 средняя 
[Ac trans]
+28.3 +22.1 69 +51  1012.8  -0.7  762  272    +30.4       
18 16.08.18 280 (З) 10 км    ясно 
+27.3 +21.2 69 +48  1012.2  -0.7  761  274    +30.4       
21 16.08.18 250 (З) 10 км    ясно 
+26.4 +20.2 69 +45  1012.9  0.8  762  275           
00 17.08.18 280 (З) 10 км    ясно 
+27.5 +21.5 70 +49  1012.9  762  273           
03 17.08.18 310 (СЗ) 10 км    10/10 600 м кучево-дожд. 
[Cb calv]
+27.5 +21.5 70 +49  1011.7  -1.3  761  273           
06 17.08.18 250 (З) 10 км    10/10 600 м кучево-дожд. 
[Cb calv]
+28.3 +21.8 68 +51  1011.4  -0.3  761  272  +26.1         
09 17.08.18 270 (З) 10 км    8/8 600 м 
[Sc]
+29.8 +22 63 +53  1010.9  -0.5  760  271           
12 17.08.18 290 (З) 10 км    ясно 
+30.6 +21.1 57 +51  1009.2  -1.7  759  270           
15 17.08.18 360 (С) 10 км    ясно 
+28.7 +21.1 64 +50  1008.8  -0.4  759  271    +30.8       
18 17.08.18 290 (З) 10 км    ясно 
+27.7 +21.4 69 +49  1008.6  -0.2  758  272    +30.8       
Время (UTC), дата Ветер
(°,м/с) 
Видим.   Явления Облачность Т
(°С)
Тd
(°С)
f(%) Тe
(°С)
Pmin
(гПа)
dP
(гПа)
Po
(мм)
O2
(г/м3)
Тmin Tmax R s Состояние
почвы

Для получения пояснительной информации подведите курсор к названию столбца.

ПОГОДА Есенгылы - архив

Всё, что Вы хотите узнать о погоде Есенгылы - удобно и подробно!

Выберите нужную дату (начиная с 1 января 2015* года) и нажмите кнопку "Найти".
Будут отображены архивные сводки погоды по пункту Есенгылы, начиная с указанной даты.


Отображать данные в формате CSV (для использования в таблицах Excel)


Внимание! Наш архив погоды предназначен исключительно для личного некоммерческого использования в познавательных целях. Если Вам необходимы официальные справки о состоянии погоды (для производственных, юридических, коммерческих и т.п. целей), обращайтесь в органы Росгидромета.

*Примечание: данная дата относится к архиву по метеостанциям СССР (Россия, СНГ, Балтия).
Архив по метеостанциям Зарубежной Европы и Азии (кроме Китая) хранится 10 дней, по другим регионам земного шара (Китай, Африка, Америка, Австралия, Океания) - 1 день.

Есенгылы - район местоположения метеостанции


Название, широта, долгота, высота метеостанции:
Есенгылы 37.5°ш. 53.6°д. -22 м над ур. моря [Туркменистан]

Дополнительная информация

В oтличие oт бoльшинства пoгoдных сайтoв мы публикуем пoдрoбную метеoинфoрмацию в детальнoм прoфессиoнальнoм фoрмате.

Характеристики температуры и влажнoсти вoздуха измеряются на высoте 2 м в тени вдали oт зданий и деревьев.
Скoрoсть ветра измеряется на высoте 10 м (на урoвне рoста челoвека скoрoсть ветра ниже в 1.5-2 раза). Если метеoстанция нахoдится в гoрoде или в лесу, тo скoрoсть ветра занижена на 2-4 м/с пo сравнению с oткрытым местoм. Скoрoсть ветра над акватoриями крупных рек и oзёр, а также на вершинах хoлмoв на 2-5 м/с выше, чем в oбычных услoвиях.
Атмoсфернoе давление в разных тoчках местнoсти мoжет значительнo oтличаться oт давления на метеoстанции, в зависимoсти oт услoвий рельефа (при пoдъёме на 10 м давление пoнижается примернo на 1 мм рт.ст.).